Location: Unspecified
(0.0000°N, 0.0000°E)
Time: 22:00:11
(UTC+00:00)

Hubble Space Telescope - Visible Passes

Search period start: 25 July 2016 00:00
Search period end: 04 August 2016 00:00
Orbit: 539 x 543 km, 28.5° (Epoch: 24 July)

Date Brightness Start Highest point End Pass type
(mag) Time Alt. Az. Time Alt. Az. Time Alt. Az.
25 Jul 1.1 04:46:24 41° WNW 04:47:21 51° NNW 04:51:23 10° NE visible
26 Jul 1.7 04:37:23 34° NW 04:37:39 35° NNW 04:41:27 10° NE visible
27 Jul 2.3 04:28:20 25° NNW 04:28:20 25° NNW 04:31:23 10° NNE visible
28 Jul 3.0 04:19:15 17° N 04:19:15 17° N 04:21:10 10° NNE visible
29 Jul 3.5 04:10:08 11° N 04:10:08 11° N 04:10:38 10° N visible
